Regional Weather Roundup
Issued by NWS New Orleans/Baton Rouge, LA

Home | Current Version | Previous Version | Text Only | Print | Product List | Glossary On
Versions: 1 2 3 4 5 6 7 8 9 10 11 12 13 14 15 16 17 18 19 20 21 22 23 24 25 26 27 28 29 30 31 32 33 34 35 36 37 38 39 40 41 42 43 44 45 46 47 48 49 50
411
ASUS44 KLIX 230810
RWRLIX
NEW ORLEANS REGIONAL WEATHER ROUNDUP
NATIONAL WEATHER SERVICE NEW ORLEANS LA
300 AM CDT THU OCT 23 2014

NOTE: "FAIR" INDICATES FEW OR NO CLOUDS BELOW 12,000 FEET WITH NO
      SIGNIFICANT WEATHER AND/OR OBSTRUCTIONS TO VISIBILITY.
      SKY/WX - SKY CONDITION AND SIGNIFICANT WEATHER.
      TMP - AIR TEMPERATURE.     DP    - DEWPOINT TEMPERATURE.
      RH  - RELATIVE HUMIDITY.   PRES  - PRESSURE.
      HI  - HEAT INDEX.          WCI   - WIND CHILL INDEX.

*  THESE STATIONS ARE NOT NWS OR FAA STATIONS AND ARE NOT UNDER
   NWS QUALITY CONTROL.

LAZ038-040-048-061>063-065>067-069-230900-
SOUTHEAST LOUISIANA

CITY           SKY/WX    TMP DP  RH WIND       PRES   REMARKS
N.O. AUDUBON     N/A     65  50  59 MISG        N/A
N.O. INTL ARPT CLEAR     65  48  54 NE10      30.06S
N.O. LAKEFRONT LGT RAIN  66  51  58 NE20      30.06F
N.O. DOWNTOWN*   N/A     63  45  51 NE10      30.06S
SLIDELL        CLEAR     50  47  89 N5        30.07S
BATON ROUGE    CLEAR     54  49  83 NE6       30.09F
BOOTHVILLE     CLEAR     71  57  61 NE9       30.03F
BELLE CHASSE   CLEAR     60  52  74 NE6       30.05S
BOGALUSA*        N/A     47  44  90 CALM      30.11R FOG
NEW ROADS*       N/A     56  49  77 NE5       30.09F
GONZALES*        N/A     56  52  85 N3        30.07F
HAMMOND*       CLEAR     54  46  76 N5        30.10S
HOUMA*         CLEAR     56  52  89 N6        30.05S
PORT FOURCHON* SUNNY     70  57  64 NE12      30.06S

$$

MSZ070-080>082-230900-
SOUTHERN MISSISSIPPI

CITY           SKY/WX    TMP DP  RH WIND       PRES   REMARKS
MCCOMB         CLEAR     54  46  74 N3        30.10F
GULFPORT       CLEAR     54  45  71 N6        30.06F
BILOXI         CLEAR     54  47  77 NE7       30.07F
PASCAGOULA     CLEAR     44  42  93 CALM      30.07S

$$

COASTAL OBSERVATIONS
LAKE AND NEARSHORE STATIONS

STATION/POSITION TIME  TEMP    WIND        PRES    WAVE
                       AIR SEA DIR/SP/G            HT/PER
                 (UTC) (F)     (DEG/KT/KT) (MB)    (FT/S)
PASCAGOULA       0800   56      10/  7/  8 1017.5
WAVELAND YACHT   0800   60      50/ 13/ 16 1017.2
GRAND ISLE       0800   70 74   60/ 11/ 15 1017.2
SOUTHWEST PASS   0800   71 82              1016.6
NEW CANAL        0800   67 71   70/ 21/ 24 1017.7
SHELL BEACH      0800   67 68   50/ 18/ 20 1017.2

OFFSHORE STATIONS

STATION/POSITION TIME  TEMP    WIND        PRES    WAVE
                       AIR SEA DIR/SP/G            HT/PER
                 (UTC) (F)     (DEG/KT/KT) (MB)    (FT/S)
64 S DAUPHIN ISL 0656   72 78   60/ 16/ 17 1016.6    5/ 6

$$




USA.gov is the U.S. government's official web portal to all federal, state and local government web resources and services.